www.pogodaiklimat.ru

Погода и климат >> Архив погоды >> Россия >> Якутия >> Верхоянск


АРХИВ ПОГОДЫ в Верхоянске

Время (UTC), дата Ветер
(напр.,м/с)
 
Видим.   Явления Облачность Т
(С)
Тd
(С)
f
(%)
Тe
(С)
Тes
(С)
Комфортность P
(гПа)
Po
(гПа)
Тmin
(С)
Tmax
(С)
R
(мм)
R24
(мм)
S
(см)
15 14.10 штиль 0 н/о н/о -7.8 -8.4 95 -9 -9 тепло 1028.1 1010.2
18 14.10 штиль 0 н/о н/о -9.9 -10.7 94 -10 -10 тепло 1027.2 1009.2
21 14.10 штиль 0 н/о н/о -8.3 -8.9 95 -9 -9 тепло 1026.6 1008.6 -10.5
00 15.10 штиль 0 50 км 10/3 1000 м
[Sc As op]
-6.7 -7.9 91 -8 -8 тепло 1026.3 1008.4 -10.5 0.0 6
03 15.10 ЮЗ 3 50 км {снег} 9/9 1000 м
[Sc]
-3.9 -6.9 80 -9 -9 по сезону 1025.5 1007.8
06 15.10 СВ 1 50 км {снег} 10/10 1000 м
[Sc]
-2.8 -6.6 75 -5 -5 тепло 1025.0 1007.5
09 15.10 С 1 20 км 9/3 1000 м
[Sc Ac trans]
-2.9 -6.3 77 -5 -5 тепло 1025.2 1007.6 -2.7 0.0
12 15.10 ЮЗ 1 н/о н/о -8.2 -8.6 97 -11 -11 по сезону 1025.1 1007.2
15 15.10 штиль 0 н/о н/о -11.9 -12.8 93 -12 -12 по сезону 1025.3 1007.1
18 15.10 ЮЗ 1 н/о н/о -13.1 -14.2 91 -15 -15 по сезону 1025.2 1006.9
21 15.10 ЮЗ 1 н/о н/о -13.9 -15.2 90 -16 -16 по сезону 1025.1 1006.9 -14.2
00 16.10 ЮЗ 1 50 км 9/0
[Ac trans Ci fib]
-12.0 -14.0 85 -14 -14 по сезону 1024.6 1006.4 -14.2
03 16.10 штиль 0 50 км 9/0
[Ac trans Ci fib]
-8.4 -11.2 80 -9 -8 тепло 1022.7 1004.8
06 16.10 штиль 0 50 км 9/0
[Ac trans Ci fib]
-5.5 -9.7 72 -6 -6 тепло 1020.2 1002.5
09 16.10 штиль 0 20 км 8/0
[Ac trans Ci fib]
-10.2 -12.2 85 -11 -11 по сезону 1018.8 1000.9 -3.7
12 16.10 штиль 0 н/о н/о -13.9 -14.9 92 -14 -14 по сезону 1017.0 998.9
15 16.10 ЮЗ 1 н/о н/о -14.1 -15.3 91 -17 -17 по сезону 1015.0 996.9
18 16.10 В 1 н/о н/о -11.5 -12.4 93 -14 -14 по сезону 1012.6 994.7
21 16.10 З 1 н/о н/о -10.6 -11.5 93 -13 -13 по сезону 1010.7 992.9 -14.2
00 17.10 ЮЗ 4 50 км 9/1 1000 м
[Sc Ac trans]
-2.4 -8.8 61 -8 -8 тепло 1010.2 992.9 -14.2
03 17.10 Ю 5
{10}
50 км 3/0
[Ac trans Ci fib]
+1.9 -7.5 50 -3 -3 тепло 1009.9 992.8
06 17.10 ЮЗ 4
{12}
50 км 10/0
[Ac As]
+1.0 -8.6 49 -4 -4 тепло 1012.1 994.9
09 17.10 ЮЗ 2 20 км 9/0
[Ac trans Ci fib]
-1.8 -9.7 55 -5 -5 тепло 1014.0 996.7 +2.4
12 17.10 СЗ 1 н/о н/о -10.5 -12.1 88 -13 -13 по сезону 1015.6 997.7
15 17.10 З 1 н/о н/о -14.0 -14.7 94 -16 -16 по сезону 1016.6 998.5
18 17.10 СВ 1 н/о н/о -16.2 -17.8 87 -19 -19 по сезону 1017.1 998.8
21 17.10 СВ 1 н/о н/о -19.0 -20.4 89 -22 -22 по сезону 1017.5 999.0 -19.0
00 18.10 штиль 0 50 км ясно -16.9 -18.8 85 -17 -17 по сезону 1017.4 999.0 -20.5 5
03 18.10 штиль 0 50 км 1/0
[Ci fib]
-9.1 -14.1 67 -9 -8 тепло 1016.5 998.6
06 18.10 В 2 50 км 6/0
[Ci fib]
-5.5 -12.1 60 -9 -9 по сезону 1015.0 997.4
09 18.10 штиль 0 20 км ясно -12.2 -15.7 75 -12 -12 по сезону 1015.4 997.4 -5.5
12 18.10 штиль 0 н/о н/о -18.1 -19.6 88 -18 -18 по сезону 1014.9 996.5
15 18.10 штиль 0 н/о н/о -18.6 -20.1 88 -19 -19 по сезону 1014.2 995.8
18 18.10 СВ 1 н/о н/о -19.2 -20.8 87 -22 -22 по сезону 1013.4 994.9
21 18.10 СВ 1 н/о н/о -17.2 -18.8 87 -20 -20 по сезону 1012.9 994.6 -19.7
00 19.10 СВ 1 50 км 9/5 1000 м
[Sc Ac trans Cs]
-15.2 -17.4 83 -18 -18 по сезону 1012.1 993.9 -19.7 5
03 19.10 СВ 2 50 км 1/1 1000 м
[Sc]
-7.6 -12.3 69 -12 -11 по сезону 1010.2 992.6
06 19.10 Ю 1 50 км 4/1 1000 м
[Sc Ac trans Ci fib]
-4.6 -11.6 58 -6 -6 тепло 1009.9 992.5
09 19.10 ЮЗ 1 н/о н/о -7.8 -12.4 69 -10 -10 тепло 1010.8 993.2 -4.4
12 19.10 В 1 н/о н/о -12.2 -13.8 88 -14 -14 по сезону 1012.3 994.3
15 19.10 штиль 0 н/о н/о -11.3 -12.9 88 -11 -11 тепло 1013.0 995.1
18 19.10 штиль 0 н/о н/о -9.9 -11.4 89 -10 -10 тепло 1013.7 995.9
21 19.10 С 1 н/о н/о -15.8 -17.1 90 -18 -18 по сезону 1015.5 997.2 -15.8
00 20.10 штиль 0 50 км 3/0
[Ci fib]
-17.0 -18.9 85 -17 -17 по сезону 1016.7 998.2 -19.4 5
03 20.10 штиль 0 50 км 9/0
[Ac trans Ci fib]
-9.9 -13.0 78 -10 -10 тепло 1016.2 998.3
06 20.10 В 1 50 км 9/0
[Ac trans Ci fib]
-8.6 -12.4 74 -11 -11 по сезону 1016.4 998.6
09 20.10 СВ 1 20 км 8/0
[Ac trans Ci fib]
-14.6 -15.8 91 -17 -17 по сезону 1017.4 999.2 -8.3
12 20.10 штиль 0 н/о н/о -15.5 -16.8 90 -16 -16 по сезону 1017.7 999.4
15 20.10 штиль 0 н/о н/о -14.7 -15.9 91 -15 -15 по сезону 1017.8 999.6
18 20.10 штиль 0 н/о н/о -14.3 -15.6 90 -14 -14 тепло 1018.5 1000.2
21 20.10 СВ 1 н/о н/о -18.6 -20.1 88 -21 -21 по сезону 1019.4 1000.9 -18.6
00 21.10 штиль 0 50 км 8/0
[Ac trans Ci fib]
-17.5 -19.4 85 -18 -17 по сезону 1019.6 1001.1 -20.0 5
03 21.10 С 1 50 км 10/0
[Ac trans Cs]
-12.7 -14.8 84 -15 -14 по сезону 1018.4 1000.3
06 21.10 СВ 1 50 км 10/0
[Ac trans Cs]
-9.5 -12.5 79 -12 -12 по сезону 1017.6 999.7
09 21.10 СВ 1 20 км 9/0
[Ac trans Ci fib]
-14.0 -16.1 84 -16 -16 по сезону 1017.9 999.7 -9.4

 

Местоположение метеостанции Верхоянск (Якутия, Россия): широта 67.57 долгота 133.40 высота над уровнем моря 136 м.

В архиве по умолчанию представлена погода в Верхоянске за последнюю неделю. Архивные данные за месяц целиком и за предыдущие месяцы, начиная с января 2011 года, Вы можете получить, выбрав интересующий диапазон дат из раскрывающегося списка и нажав кнопку "Ввод!".


*Определитесь, кто Вы:
робот инопланетянин человек

Внимание! Время в таблицах - всемирное. Для получения местного времени необходимо прибавить поправку, которая в Верхоянске равна 10 ч.

Смотрите также архив погоды в соседних городах и на ближайших метеорологических станциях:

Погода в Батагае (Якутия, Россия) (52 км)
Погода в Екюччю (Якутия, Россия) (118 км)
Погода в Батагай-Алыте (Якутия, Россия) (129 км)
Погода в Усть-Чарках (Якутия, Россия) (162 км)
Погода в Иэме (Якутия, Россия) (274 км)
Погода в Усть-Куйге (Якутия, Россия) (284 км)
Погода в Себян-Кюеле (Якутия, Россия) (294 км)
Погода в Депутатском (Якутия, Россия) (329 км)
Погода в Юбилейной (Якутия, Россия) (373 км)
Погода в Джарджане (Якутия, Россия) (409 км)

Пояснения к столбцам:

Ветер - указаны скорость ветра в м/с - средняя за 10 мин, порывы в срок и между сроками (в фигурных скобках) и направление, откуда дует ветер: С - северный, СВ - северо-восточный, В - восточный, ЮВ - юго-восточный, Ю - южный, ЮЗ - юго-западный, З - западный, СЗ - северо-западный.
Видимость - горизонтальная дальность видимости в метрах или километрах. При видимости от 1 до 10 км при отсутствии осадков обычно наблюдается дымка, при ухудшении видимости до 1 км и менее - туман. В сухую погоду видимость может ухудшаться дымом, пылью или мглою.
Явления - указаны атмосферные явления, наблюдавшиеся в срок или в последний час перед сроком; фигурными скобками обозначены явления, наблюдавшиеся между сроками (за 1-3 часа до срока); квадратными скобками обозначены град или гололедные отложения с указанием их диаметра в мм.
Облачность - указаны через наклонную черту общая и нижняя облачность в баллах и высота нижней границы облаков в метрах; квадратными скобками обозначены формы облаков: Ci - перистые, Cs - перисто-слоистые, Cc - перисто-кучевые, Ac - высококучевые, As - высокослоистые, Sc - слоисто-кучевые, Ns - слоисто-дождевые, Cu - кучевые, Cb - кучево-дождевые. Подробнее классификацию облаков см. в Атласе облаков (PDF).
T - Температура воздуха - температура, измеренная на высоте 2 м над землей.
Td - Температура точки росы - температура, при понижении до которой содержащийся в воздухе водяной пар достигнет насыщения.
f - Относительная влажность воздуха - влажноcть воздуха, измеренная на высоте 2 м над землей.
Te - Эффективная температура - температура, которую ощущает одетый по сезону человек в тени. Характеристика душности погоды. При расчете учитывается влияние влажности воздуха и скорости ветра на теплоощущения человека.
Tes - Эффективная температура на солнце - температура, которую ощущает человек, с поправкой на солнечный нагрев. Характеристика знойности погоды. Зависит от высоты солнца над горизонтом, облачности и скорости ветра. Ночью, в пасмурную погоду, а также при ветре 12 м/с и более поправка равна нулю.
P - Атмосферное давление - приведенное к уровню моря атмосферное давление.
Po - Атмосферное давление - измеренное на уровне метеостанции атмосферное давление.
Tmin - Минимальная температура - минимум температуры воздуха на высоте 2 м над землей.
Tmax - Максимальная температура - максимум температуры воздуха на высоте 2 м над землей.
R - Количество осадков - Количество выпавших осадков за период времени, мм. При наведении курсора мыши на число - период времени, за который выпало указанное количество осадков.
R24 - Количество осадков - Количество выпавших осадков за 24 часа, мм.
S - Снежный покров - Высота снежного покрова, см. При наведении курсора мыши на число - состояние снежного покрова и степень покрытия местности в баллах.